Regional Weather Roundup
Issued by NWS

Home | Current Version | Previous Version | Graphics & Text | Print | Product List | Glossary Off
Versions: 1 2 3 4 5 6 7 8 9 10 11 12 13 14 15 16 17 18 19 20 21 22 23 24 25 26 27 28 29 30 31 32 33 34 35 36 37 38 39 40 41 42 43 44 45 46 47 48 49 50

000
ASUS43 KLSX 180057
RWRMO

WEATHER SUMMARY FOR MISSOURI
NATIONAL WEATHER SERVICE SPRINGFIELD MO
700 PM CST SUN DEC 17 2017

NOTE: "FAIR" INDICATES FEW OR NO CLOUDS BELOW 12,000 FEET WITH NO
       SIGNIFICANT WEATHER AND/OR OBSTRUCTIONS TO VISIBILITY.
       CURRENT SKY AND/OR WEATHER CONDITIONS ARE NOT AVAILABLE FOR
       CHILLICOTHE AND FARMINGTON.

MOZ001>031-035>038-043-044-053-054-180200-
...NORTHERN AND WESTERN MISSOURI...

CITY           SKY/WX    TMP DP  RH WIND       PRES   REMARKS
KANSAS CTY INT CLOUDY    45  43  93 S8        30.01R
LEE`S SUMMIT   CLOUDY    46  43  89 S10       30.03R
ST JOSEPH      CLOUDY    40  40 100 N7        30.01R FOG
CHILLICOTHE      N/A     45  44  97 S6        30.02R
KIRKSVILLE     CLOUDY    44  32  62 SW7       29.99F

$$
MOZ066>068-077>081-088>096-101>105-180200-
...SOUTHWEST MISSOURI...

CITY           SKY/WX    TMP DP  RH WIND       PRES   REMARKS
SPRINGFIELD    CLOUDY    46  45  96 SW6       30.06R
BRANSON        CLOUDY    45  45 100 CALM      30.08R FOG

$$
MOZ032>034-039>042-045>050-055>058-069>072-180200-
...CENTRAL MISSOURI...

CITY           SKY/WX    TMP DP  RH WIND       PRES   REMARKS
COLUMBIA       NOT AVBL
JEFFERSON CITY CLOUDY    47  44  90 SW5       30.07R
ROLLA          CLOUDY    46  44  93 SW7       30.06R
SEDALIA        CLOUDY    46  46 100 S8        30.06R
WHITEMAN AFB   CLOUDY    45  43  93 SW8       30.00R
WARRENSBURG    CLOUDY    43  43 100 S7        30.03R

$$
MOZ051-052-059>065-180200-
...EAST CENTRAL MISSOURI...

CITY           SKY/WX    TMP DP  RH WIND       PRES   REMARKS
ST LOUIS INTL  CLOUDY    50  43  77 SW13      30.05S

$$
MOZ072>076-082>087-097>100-106>115-180200-
...SOUTH CENTRAL AND SOUTHEAST MISSOURI...

CITY           SKY/WX    TMP DP  RH WIND       PRES   REMARKS
CAPE GIRARDEAU CLOUDY    45  42  89 S5        30.11R
POPLAR BLUFF   CLOUDY    45  44  97 SW3       30.12R
WEST PLAINS    CLOUDY    46  44  93 S3        30.09R FOG

$$



USA.gov is the U.S. government's official web portal to all federal, state and local government web resources and services.